Simultaneous Nadir Overpasses (SNOs) Predictions

Prediction of SNOs between METOP-B and NOAA-19 Satellite Orbit:

Table of predicted SNOs for the next 14.0 days since TLE Epoch: 7/10/2020
Index Date (METOP-B) Time (METOP-B) Lat,Lon (METOP-B) SZA (METOP-B ) Date (NOAA-19) Time (NOAA-19) Lat,Lon (NOAA-19) SZA (NOAA-19 ) Distance(km) Time Diff (sec)
1 07/13/2020 19:41:11 80.08, -92.33 59.11 07/13/2020 19:40:02 80.09, -92.48 59.09 3.01 69
2 07/13/2020 20:31:53 -80.06, 74.79 120.92 07/13/2020 20:31:07 -80.08, 74.90 120.91 3.08 46
3 07/13/2020 21:22:32 80.07,-117.80 59.10 07/13/2020 21:22:01 80.08,-117.80 59.10 1.08 31
4 07/13/2020 22:13:13 -80.08, 49.61 120.88 07/13/2020 22:13:06 -80.07, 49.58 120.89 1.21 7
5 07/13/2020 23:03:54 80.06,-143.28 59.09 07/13/2020 23:04:01 80.07,-143.12 59.12 3.28 7
6 07/13/2020 23:54:35 -80.06, 24.14 120.89 07/13/2020 23:55:06 -80.05, 24.26 120.88 2.51 31
7 07/14/2020 00:45:15 80.07,-168.45 59.13 07/14/2020 00:46:01 80.05,-168.44 59.13 2.13 46
8 07/14/2020 01:35:57 -80.05, -1.34 120.90 07/14/2020 01:37:07 -80.06, -1.38 120.87 1.73 70
9 07/24/2020 20:54:28 80.10,-110.49 61.17 07/24/2020 20:53:24 80.10,-110.58 61.15 1.84 64
10 07/24/2020 21:45:10 -80.08, 56.63 118.86 07/24/2020 21:44:29 -80.10, 56.71 118.85 2.95 41
